User: anonymous   Login
Location: *
(35.8942°N, 23.3025°E)
Time: 18:53:23
(UTC+00:00)
Language:

Cosmos 1980 - Orbit

View from above orbital plane
View from above orbital plane
View from above satellite
View from above satellite

Ground track
Ground track

The orbit data is extracted from the following two-line orbital elements,

1 19649U 88102A   21340.46574638  .00000298  00000-0  17914-3 0  9995
2 19649  71.0010 237.6147 0006160 330.4726  29.6048 14.14744005705290
Epoch (UTC): 06 December 2021 11:10:40
Eccentricity: 0.0006160
inclination: 71.0010°
perigee height: 839 km
apogee height: 847 km
right ascension of ascending node: 237.6147°
argument of perigee: 330.4726°
revolutions per day: 14.14744005
mean anomaly at epoch: 29.6048°
orbit number at epoch: 70529

The dashed part of the orbit path shows where the satellite is in the earth's shadow,  

DLR